owner,sensor,date,latitude,longitude,vertical_datum,wind_speed,wind_to_direction,wind_speed_of_gust,qcFlag 
TABS,ioos:station:wmo:42046:1,2006-11-01T00:09:00Z,27.8903,-94.0367,4.0,0.590338886,88.05809723,0.67,'11111222,11111222,11111222' 
TABS,ioos:station:wmo:42046:1,2006-11-01T00:39:00Z,27.8903,-94.0367,4.0,0.590338886,88.05809723,0.66,'11111222,11111222,11111222' 
TABS,ioos:station:wmo:42046:1,2006-11-01T01:09:00Z,27.8903,-94.0367,4.0,0.592114854,85.15559003,0.66,'11111222,11111222,11111222' 
TABS,ioos:station:wmo:42046:1,2006-11-01T01:39:00Z,27.8903,-94.0367,4.0,0.595399026,82.27777134,0.66,'11111222,11111222,11111222' 
TABS,ioos:station:wmo:42046:1,2006-11-01T02:09:00Z,27.8903,-94.0367,4.0,0.595399026,82.27777134,0.66,'11111222,11111222,11111222' 
TABS,ioos:station:wmo:42046:1,2006-11-01T02:39:00Z,27.8903,-94.0367,4.0,0.600166644,79.43859309,0.66,'11111222,11111222,11111222' 
TABS,ioos:station:wmo:42046:1,2006-11-01T03:09:00Z,27.8903,-94.0367,4.0,0.570701323,78.88656453,0.66,'11111222,11111222,11111222' 
TABS,ioos:station:wmo:42046:1,2006-11-01T03:39:00Z,27.8903,-94.0367,4.0,0.600166644,79.43859309,0.66,'11111222,11111222,11111222' 
TABS,ioos:station:wmo:42046:1,2006-11-01T04:09:00Z,27.8903,-94.0367,4.0,0.600166644,79.43859309,0.66,'11111222,11111222,11111222' 
TABS,ioos:station:wmo:42046:1,2006-11-01T04:39:00Z,27.8903,-94.0367,4.0,0.600166644,79.43859309,0.66,'11111222,11111222,11111222' 
TABS,ioos:station:wmo:42046:1,2006-11-01T05:09:00Z,27.8903,-94.0367,4.0,0.595399026,82.27777134,0.66,'11111222,11111222,11111222' 
TABS,ioos:station:wmo:42046:1,2006-11-01T05:39:00Z,27.8903,-94.0367,4.0,0.595399026,82.27777134,0.66,'11111222,11111222,11111222' 
TABS,ioos:station:wmo:42046:1,2006-11-01T06:09:00Z,27.8903,-94.0367,4.0,0.595399026,82.27777134,0.66,'11111222,11111222,11111222' 
TABS,ioos:station:wmo:42046:1,2006-11-01T06:39:00Z,27.8903,-94.0367,4.0,0.592114854,85.15559003,0.66,'11111222,11111222,11111222' 
TABS,ioos:station:wmo:42046:1,2006-11-01T07:09:00Z,27.8903,-94.0367,4.0,0.590338886,88.05809723,0.66,'11111222,11111222,11111222' 
TABS,ioos:station:wmo:42046:1,2006-11-01T07:39:00Z,27.8903,-94.0367,4.0,0.590338886,88.05809723,0.66,'11111222,11111222,11111222' 
TABS,ioos:station:wmo:42046:1,2006-11-01T08:09:00Z,27.8903,-94.0367,4.0,0.580775344,92.96135013,0.66,'11111222,11111222,11111222' 
TABS,ioos:station:wmo:42046:1,2006-11-01T08:39:00Z,27.8903,-94.0367,4.0,0.59,90.00042092,0.66,'11111222,11111222,11111222' 
TABS,ioos:station:wmo:42046:1,2006-11-01T09:09:00Z,27.8903,-94.0367,4.0,0.580775344,92.96135013,0.66,'11111222,11111222,11111222' 
TABS,ioos:station:wmo:42046:1,2006-11-01T09:39:00Z,27.8903,-94.0367,4.0,0.59,90.00042092,0.66,'11111222,11111222,11111222' 
TABS,ioos:station:wmo:42046:1,2006-11-01T10:09:00Z,27.8903,-94.0367,4.0,0.590338886,88.05809723,0.66,'11111222,11111222,11111222' 
TABS,ioos:station:wmo:42046:1,2006-11-01T10:39:00Z,27.8903,-94.0367,4.0,0.595399026,82.27777134,0.66,'11111222,11111222,11111222' 
TABS,ioos:station:wmo:42046:1,2006-11-01T11:09:00Z,27.8903,-94.0367,4.0,0.595399026,82.27777134,0.66,'11111222,11111222,11111222' 
TABS,ioos:station:wmo:42046:1,2006-11-01T11:39:00Z,27.8903,-94.0367,4.0,0.590338886,88.05809723,0.66,'11111222,11111222,11111222' 
TABS,ioos:station:wmo:42046:1,2006-11-01T12:09:00Z,27.8903,-94.0367,4.0,0.59,90.00042092,0.66,'11111222,11111222,11111222' 
TABS,ioos:station:wmo:42046:1,2006-11-01T12:39:00Z,27.8903,-94.0367,4.0,0.59,90.00042092,0.66,'11111222,11111222,11111222' 
TABS,ioos:station:wmo:42046:1,2006-11-01T13:09:00Z,27.8903,-94.0367,4.0,0.590338886,88.05809723,0.67,'11111222,11111222,11111222' 
TABS,ioos:station:wmo:42046:1,2006-11-01T13:39:00Z,27.8903,-94.0367,4.0,0.592114854,85.15559003,0.69,'11111222,11111222,11111222' 
TABS,ioos:station:wmo:42046:1,2006-11-01T14:09:00Z,27.8903,-94.0367,4.0,0.600166644,79.43859309,0.69,'11111222,11111222,11111222' 
TABS,ioos:station:wmo:42046:1,2006-11-01T14:39:00Z,27.8903,-94.0367,4.0,0.616116872,76.86558749,0.69,'11111222,11111222,11111222' 
TABS,ioos:station:wmo:42046:1,2006-11-01T15:09:00Z,27.8903,-94.0367,4.0,0.600166644,79.43859309,0.69,'11111222,11111222,11111222' 
TABS,ioos:station:wmo:42046:1,2006-11-01T15:39:00Z,27.8903,-94.0367,4.0,0.600166644,79.43859309,0.69,'11111222,11111222,11111222' 
TABS,ioos:station:wmo:42046:1,2006-11-01T16:09:00Z,27.8903,-94.0367,4.0,0.623618473,74.18042213,0.69,'11111222,11111222,11111222' 
TABS,ioos:station:wmo:42046:1,2006-11-01T16:39:00Z,27.8903,-94.0367,4.0,0.614654374,68.02512248,0.69,'11111222,11111222,11111222' 
TABS,ioos:station:wmo:42046:1,2006-11-01T17:09:00Z,27.8903,-94.0367,4.0,0.604069532,70.66481576,0.69,'11111222,11111222,11111222' 
TABS,ioos:station:wmo:42046:1,2006-11-01T17:39:00Z,27.8903,-94.0367,4.0,0.604069532,70.66481576,0.69,'11111222,11111222,11111222' 
TABS,ioos:station:wmo:42046:1,2006-11-01T18:09:00Z,27.8903,-94.0367,4.0,0.599332963,64.28968542,0.69,'11111222,11111222,11111222' 
TABS,ioos:station:wmo:42046:1,2006-11-01T18:39:00Z,27.8903,-94.0367,4.0,0.614654374,68.02512248,0.69,'11111222,11111222,11111222' 
TABS,ioos:station:wmo:42046:1,2006-11-01T19:09:00Z,27.8903,-94.0367,4.0,0.594810894,73.39263734,0.69,'11111222,11111222,11111222' 
TABS,ioos:station:wmo:42046:1,2006-11-01T19:39:00Z,27.8903,-94.0367,4.0,0.575847202,69.67648978,0.69,'11111222,11111222,11111222' 
TABS,ioos:station:wmo:42046:1,2006-11-01T20:09:00Z,27.8903,-94.0367,4.0,0.604069532,70.66481576,0.69,'11111222,11111222,11111222' 
TABS,ioos:station:wmo:42046:1,2006-11-01T20:39:00Z,27.8903,-94.0367,4.0,0.585234996,56.85266076,0.67,'11111222,11111222,11111222' 
TABS,ioos:station:wmo:42046:1,2006-11-01T21:09:00Z,27.8903,-94.0367,4.0,0.572450871,62.9869769,0.67,'11111222,11111222,11111222' 
TABS,ioos:station:wmo:42046:1,2006-11-01T21:39:00Z,27.8903,-94.0367,4.0,0.572450871,62.9869769,0.66,'11111222,11111222,11111222' 
TABS,ioos:station:wmo:42046:1,2006-11-01T22:09:00Z,27.8903,-94.0367,4.0,0.572450871,62.9869769,0.66,'11111222,11111222,11111222' 
TABS,ioos:station:wmo:42046:1,2006-11-01T22:39:00Z,27.8903,-94.0367,4.0,0.584123275,51.95262552,0.66,'11111222,11111222,11111222' 
TABS,ioos:station:wmo:42046:1,2006-11-01T23:09:00Z,27.8903,-94.0367,4.0,0.572450871,27.01239172,0.67,'11111222,11111222,11111222' 
TABS,ioos:station:wmo:42046:1,2006-11-01T23:39:00Z,27.8903,-94.0367,4.0,0.576888204,33.68977829,0.66,'11111222,11111222,11111222' 
TABS,ioos:station:wmo:42046:1,2006-11-02T00:09:00Z,27.8903,-94.0367,4.0,0.570087713,37.87468462,0.66,'11111222,11111222,11111222' 
TABS,ioos:station:wmo:42046:1,2006-11-02T00:39:00Z,27.8903,-94.0367,4.0,0.588982173,40.17892951,0.67,'11111222,11111222,11111222' 
TABS,ioos:station:wmo:42046:1,2006-11-02T01:09:00Z,27.8903,-94.0367,4.0,0.588982173,40.17892951,0.68,'11111222,11111222,11111222' 
TABS,ioos:station:wmo:42046:1,2006-11-02T01:39:00Z,27.8903,-94.0367,4.0,0.583095189,5.905916844,0.66,'11111222,11111222,11111222' 
TABS,ioos:station:wmo:42046:1,2006-11-02T02:09:00Z,27.8903,-94.0367,4.0,0.560802996,21.99086803,0.67,'11111222,11111222,11111222' 
TABS,ioos:station:wmo:42046:1,2006-11-02T02:39:00Z,27.8903,-94.0367,4.0,0.59,359.9997895,0.67,'11111222,11144222,11111222' 
TABS,ioos:station:wmo:42046:1,2006-11-02T03:09:00Z,27.8903,-94.0367,4.0,0.56,359.9997895,0.66,'11111222,11144222,11111222' 
TABS,ioos:station:wmo:42046:1,2006-11-02T03:39:00Z,27.8903,-94.0367,4.0,0.580775344,2.960718752,0.66,'11111222,11111222,11111222' 
TABS,ioos:station:wmo:42046:1,2006-11-02T04:09:00Z,27.8903,-94.0367,4.0,0.580775344,2.960718752,0.66,'11111222,11111222,11111222' 
TABS,ioos:station:wmo:42046:1,2006-11-02T04:39:00Z,27.8903,-94.0367,4.0,0.575847202,339.6767002,0.66,'11111222,11111222,11111222' 
TABS,ioos:station:wmo:42046:1,2006-11-02T05:09:00Z,27.8903,-94.0367,4.0,0.558659109,315.7251174,0.67,'11111222,11111222,11111222' 
TABS,ioos:station:wmo:42046:1,2006-11-02T05:39:00Z,27.8903,-94.0367,4.0,0.55027266,289.0934474,0.67,'11111222,11111222,11111222' 
TABS,ioos:station:wmo:42046:1,2006-11-02T06:09:00Z,27.8903,-94.0367,4.0,0.570701323,258.8869855,0.68,'11111222,11111222,11111222' 
TABS,ioos:station:wmo:42046:1,2006-11-02T06:39:00Z,27.8903,-94.0367,4.0,0.559464029,245.7256156,0.66,'11111222,11111222,11111222' 
TABS,ioos:station:wmo:42046:1,2006-11-02T07:09:00Z,27.8903,-94.0367,4.0,0.536656315,243.4350109,0.67,'11111222,11111222,11111222' 
TABS,ioos:station:wmo:42046:1,2006-11-02T07:39:00Z,27.8903,-94.0367,4.0,0.551543289,247.6199173,0.67,'11111222,11111222,11111222' 
TABS,ioos:station:wmo:42046:1,2006-11-02T08:09:00Z,27.8903,-94.0367,4.0,0.531601354,253.610498,0.66,'11111222,11111222,11111222' 
TABS,ioos:station:wmo:42046:1,2006-11-02T08:39:00Z,27.8903,-94.0367,4.0,0.537587202,260.3624844,0.67,'11111222,11111222,11111222' 
TABS,ioos:station:wmo:42046:1,2006-11-02T09:09:00Z,27.8903,-94.0367,4.0,0.533385414,263.5411987,0.67,'11111222,11111222,11111222' 
TABS,ioos:station:wmo:42046:1,2006-11-02T09:39:00Z,27.8903,-94.0367,4.0,0.533385414,263.5411987,0.69,'11111222,11111222,11111222' 
TABS,ioos:station:wmo:42046:1,2006-11-02T10:09:00Z,27.8903,-94.0367,4.0,0.543415127,257.2424977,0.67,'11111222,11111222,11111222' 
TABS,ioos:station:wmo:42046:1,2006-11-02T10:39:00Z,27.8903,-94.0367,4.0,0.537587202,260.3624844,0.66,'11111222,11111222,11111222' 
TABS,ioos:station:wmo:42046:1,2006-11-02T11:09:00Z,27.8903,-94.0367,4.0,0.478539445,259.1597199,0.68,'11111222,11111222,11111222' 
TABS,ioos:station:wmo:42046:1,2006-11-02T11:39:00Z,27.8903,-94.0367,4.0,0.478539445,259.1597199,0.66,'11111222,11111222,11111222' 
TABS,ioos:station:wmo:42046:1,2006-11-02T12:09:00Z,27.8903,-94.0367,4.0,0.512640225,249.4440028,0.67,'11111222,11111222,11111222' 
TABS,ioos:station:wmo:42046:1,2006-11-02T12:39:00Z,27.8903,-94.0367,4.0,0.523927476,246.3706775,0.66,'11111222,11111222,11111222' 
TABS,ioos:station:wmo:42046:1,2006-11-02T13:09:00Z,27.8903,-94.0367,4.0,0.536656315,243.4350109,0.67,'11111222,11111222,11111222' 
TABS,ioos:station:wmo:42046:1,2006-11-02T13:39:00Z,27.8903,-94.0367,4.0,0.484664833,248.1986415,0.66,'11111222,11111222,11111222' 
TABS,ioos:station:wmo:42046:1,2006-11-02T14:09:00Z,27.8903,-94.0367,4.0,0.512640225,249.4440028,0.67,'11111222,11111222,11111222' 
TABS,ioos:station:wmo:42046:1,2006-11-02T14:39:00Z,27.8903,-94.0367,4.0,0.512640225,249.4440028,0.65,'11111222,11111222,11111222' 
TABS,ioos:station:wmo:42046:1,2006-11-02T15:09:00Z,27.8903,-94.0367,4.0,0.507740091,237.8750767,0.65,'11111222,11111222,11111222' 
TABS,ioos:station:wmo:42046:1,2006-11-02T15:39:00Z,27.8903,-94.0367,4.0,0.51,241.9275787,0.64,'11111222,11111222,11111222' 
TABS,ioos:station:wmo:42046:1,2006-11-02T16:09:00Z,27.8903,-94.0367,4.0,0.523927476,246.3706775,0.64,'11111222,11111222,11111222' 
TABS,ioos:station:wmo:42046:1,2006-11-02T16:39:00Z,27.8903,-94.0367,4.0,0.51,241.9275787,0.64,'11111222,11111222,11111222' 
TABS,ioos:station:wmo:42046:1,2006-11-02T17:09:00Z,27.8903,-94.0367,4.0,0.512640225,249.4440028,0.64,'11111222,11111222,11111222' 
TABS,ioos:station:wmo:42046:1,2006-11-02T17:39:00Z,27.8903,-94.0367,4.0,0.484664833,248.1986415,0.64,'11111222,11111222,11111222' 
TABS,ioos:station:wmo:42046:1,2006-11-02T18:09:00Z,27.8903,-94.0367,4.0,0.474341649,251.5650943,0.64,'11111222,11111222,11111222' 
TABS,ioos:station:wmo:42046:1,2006-11-02T18:39:00Z,27.8903,-94.0367,4.0,0.51,241.9275787,0.63,'11111222,11111222,11111222' 
TABS,ioos:station:wmo:42046:1,2006-11-02T19:09:00Z,27.8903,-94.0367,4.0,0.524309069,235.097586,0.62,'11111222,11111222,11111222' 
TABS,ioos:station:wmo:42046:1,2006-11-02T19:39:00Z,27.8903,-94.0367,4.0,0.542033209,232.4959453,0.64,'11111222,11111222,11111222' 
TABS,ioos:station:wmo:42046:1,2006-11-02T20:09:00Z,27.8903,-94.0367,4.0,0.51,241.9275787,0.64,'11111222,11111222,11111222' 
TABS,ioos:station:wmo:42046:1,2006-11-02T20:39:00Z,27.8903,-94.0367,4.0,0.496588361,244.983165,0.65,'11111222,11111222,11111222' 
TABS,ioos:station:wmo:42046:1,2006-11-02T21:09:00Z,27.8903,-94.0367,4.0,0.533385414,239.5889898,0.63,'11111222,11111222,11111222' 
TABS,ioos:station:wmo:42046:1,2006-11-02T21:39:00Z,27.8903,-94.0367,4.0,0.51,241.9275787,0.64,'11111222,11111222,11111222' 
TABS,ioos:station:wmo:42046:1,2006-11-02T22:09:00Z,27.8903,-94.0367,4.0,0.512640225,249.4440028,0.63,'11111222,11111222,11111222' 
TABS,ioos:station:wmo:42046:1,2006-11-02T22:39:00Z,27.8903,-94.0367,4.0,0.478539445,259.1597199,0.65,'11111222,11111222,11111222' 
TABS,ioos:station:wmo:42046:1,2006-11-02T23:09:00Z,27.8903,-94.0367,4.0,0.523927476,246.3706775,0.64,'11111222,11111222,11111222' 
TABS,ioos:station:wmo:42046:1,2006-11-02T23:39:00Z,27.8903,-94.0367,4.0,0.523927476,256.759511,0.64,'11111222,11111222,11111222' 
TABS,ioos:station:wmo:42046:1,2006-11-03T00:09:00Z,27.8903,-94.0367,4.0,0.503587132,263.1572426,0.62,'11111222,11111222,11111222' 
TABS,ioos:station:wmo:42046:1,2006-11-03T00:39:00Z,27.8903,-94.0367,4.0,0.523927476,256.759511,0.63,'11111222,11111222,11111222' 
TABS,ioos:station:wmo:42046:1,2006-11-03T01:09:00Z,27.8903,-94.0367,4.0,0.523927476,256.759511,0.64,'11111222,11111222,11111222' 
TABS,ioos:station:wmo:42046:1,2006-11-03T01:39:00Z,27.8903,-94.0367,4.0,0.523927476,256.759511,0.65,'11111222,11111222,11111222' 
TABS,ioos:station:wmo:42046:1,2006-11-03T02:09:00Z,27.8903,-94.0367,4.0,0.531601354,253.610498,0.64,'11111222,11111222,11111222' 
TABS,ioos:station:wmo:42046:1,2006-11-03T02:39:00Z,27.8903,-94.0367,4.0,0.508035432,259.7960501,0.65,'11111222,11111222,11111222' 
TABS,ioos:station:wmo:42046:1,2006-11-03T03:09:00Z,27.8903,-94.0367,4.0,0.530848378,273.2396927,0.65,'11111222,11111222,11111222' 
TABS,ioos:station:wmo:42046:1,2006-11-03T03:39:00Z,27.8903,-94.0367,4.0,0.503587132,263.1572426,0.63,'11111222,11111222,11111222' 
TABS,ioos:station:wmo:42046:1,2006-11-03T04:09:00Z,27.8903,-94.0367,4.0,0.472969344,283.4485836,0.64,'11111222,11111222,11111222' 
TABS,ioos:station:wmo:42046:1,2006-11-03T04:39:00Z,27.8903,-94.0367,4.0,0.50447993,283.7607529,0.62,'11111222,11111222,11111222' 
TABS,ioos:station:wmo:42046:1,2006-11-03T05:09:00Z,27.8903,-94.0367,4.0,0.472969344,283.4485836,0.62,'11111222,11111222,11111222' 
TABS,ioos:station:wmo:42046:1,2006-11-03T05:39:00Z,27.8903,-94.0367,4.0,0.503587132,276.8427574,0.63,'11111222,11111222,11111222' 
TABS,ioos:station:wmo:42046:1,2006-11-03T06:09:00Z,27.8903,-94.0367,4.0,0.498196748,280.407687,0.63,'11111222,11111222,11111222' 
TABS,ioos:station:wmo:42046:1,2006-11-03T06:39:00Z,27.8903,-94.0367,4.0,0.498196748,280.407687,0.62,'11111222,11111222,11111222' 
TABS,ioos:station:wmo:42046:1,2006-11-03T07:09:00Z,27.8903,-94.0367,4.0,0.500899191,273.4336223,0.65,'11111222,11111222,11111222' 
TABS,ioos:station:wmo:42046:1,2006-11-03T07:39:00Z,27.8903,-94.0367,4.0,0.472969344,283.4485836,0.63,'11111222,11111222,11111222' 
TABS,ioos:station:wmo:42046:1,2006-11-03T08:09:00Z,27.8903,-94.0367,4.0,0.462385121,291.5712567,0.62,'11111222,11111222,11111222' 
TABS,ioos:station:wmo:42046:1,2006-11-03T08:39:00Z,27.8903,-94.0367,4.0,0.501597448,293.4985107,0.64,'11111222,11111222,11111222' 
TABS,ioos:station:wmo:42046:1,2006-11-03T09:09:00Z,27.8903,-94.0367,4.0,0.477074418,303.0237903,0.62,'11111222,11111222,11111222' 
TABS,ioos:station:wmo:42046:1,2006-11-03T09:39:00Z,27.8903,-94.0367,4.0,0.502493781,301.1592316,0.63,'11111222,11111222,11111222' 
TABS,ioos:station:wmo:42046:1,2006-11-03T10:09:00Z,27.8903,-94.0367,4.0,0.49578221,318.270375,0.64,'11111222,11111222,11111222' 
TABS,ioos:station:wmo:42046:1,2006-11-03T10:39:00Z,27.8903,-94.0367,4.0,0.490407993,290.2825117,0.63,'11111222,11111222,11111222' 
TABS,ioos:station:wmo:42046:1,2006-11-03T11:09:00Z,27.8903,-94.0367,4.0,0.501597448,293.4985107,0.64,'11111222,11111222,11111222' 
TABS,ioos:station:wmo:42046:1,2006-11-03T11:39:00Z,27.8903,-94.0367,4.0,0.477074418,303.0237903,0.62,'11111222,11111222,11111222' 
TABS,ioos:station:wmo:42046:1,2006-11-03T12:09:00Z,27.8903,-94.0367,4.0,0.435660418,301.8659032,0.64,'11111222,11111222,11111222' 
TABS,ioos:station:wmo:42046:1,2006-11-03T12:39:00Z,27.8903,-94.0367,4.0,0.502493781,301.1592316,0.62,'11111222,11111222,11111222' 
TABS,ioos:station:wmo:42046:1,2006-11-03T13:09:00Z,27.8903,-94.0367,4.0,0.417731971,312.0890638,0.64,'11111222,11111222,11111222' 
TABS,ioos:station:wmo:42046:1,2006-11-03T13:39:00Z,27.8903,-94.0367,4.0,0.502493781,301.1592316,0.62,'11111222,11111222,11111222' 
TABS,ioos:station:wmo:42046:1,2006-11-03T14:09:00Z,27.8903,-94.0367,4.0,0.475078941,310.7320115,0.62,'11111222,11111222,11111222' 
TABS,ioos:station:wmo:42046:1,2006-11-03T14:39:00Z,27.8903,-94.0367,4.0,0.462385121,291.5712567,0.64,'11111222,11111222,11111222' 
TABS,ioos:station:wmo:42046:1,2006-11-03T15:09:00Z,27.8903,-94.0367,4.0,0.490407993,290.2825117,0.64,'11111222,11111222,11111222' 
TABS,ioos:station:wmo:42046:1,2006-11-03T15:39:00Z,27.8903,-94.0367,4.0,0.486004115,306.6340282,0.65,'11111222,11111222,11111222' 
TABS,ioos:station:wmo:42046:1,2006-11-03T16:09:00Z,27.8903,-94.0367,4.0,0.529244745,292.2034266,0.65,'11111222,11111222,11111222' 
TABS,ioos:station:wmo:42046:1,2006-11-03T16:39:00Z,27.8903,-94.0367,4.0,0.487647414,298.1415354,0.65,'11111222,11111222,11111222' 
TABS,ioos:station:wmo:42046:1,2006-11-03T17:09:00Z,27.8903,-94.0367,4.0,0.48259714,325.9805191,0.64,'11111222,11111222,11111222' 
TABS,ioos:station:wmo:42046:1,2006-11-03T17:39:00Z,27.8903,-94.0367,4.0,0.484664833,338.198431,0.64,'11111222,11111222,11111222' 
TABS,ioos:station:wmo:42046:1,2006-11-03T18:09:00Z,27.8903,-94.0367,4.0,0.466476152,329.0361054,0.64,'11111222,11111222,11111222' 
TABS,ioos:station:wmo:42046:1,2006-11-03T18:39:00Z,27.8903,-94.0367,4.0,0.442944692,331.6991,0.65,'11111222,11111222,11111222' 
TABS,ioos:station:wmo:42046:1,2006-11-03T19:09:00Z,27.8903,-94.0367,4.0,0.469574275,333.4348005,0.65,'11111222,11111222,11111222' 
TABS,ioos:station:wmo:42046:1,2006-11-03T19:39:00Z,27.8903,-94.0367,4.0,0.4580393,323.8805332,0.66,'11111222,11111222,11111222' 
TABS,ioos:station:wmo:42046:1,2006-11-03T20:09:00Z,27.8903,-94.0367,4.0,0.469574275,333.4348005,0.65,'11111222,11111222,11111222' 
TABS,ioos:station:wmo:42046:1,2006-11-03T20:39:00Z,27.8903,-94.0367,4.0,0.48259714,325.9805191,0.65,'11111222,11111222,11111222' 
TABS,ioos:station:wmo:42046:1,2006-11-03T21:09:00Z,27.8903,-94.0367,4.0,0.434165867,321.5461702,0.65,'11111222,11111222,11111222' 
TABS,ioos:station:wmo:42046:1,2006-11-03T21:39:00Z,27.8903,-94.0367,4.0,0.4580393,323.8805332,0.66,'11111222,11111222,11111222' 
TABS,ioos:station:wmo:42046:1,2006-11-03T22:09:00Z,27.8903,-94.0367,4.0,0.49578221,318.270375,0.65,'11111222,11111222,11111222' 
TABS,ioos:station:wmo:42046:1,2006-11-03T22:39:00Z,27.8903,-94.0367,4.0,0.475078941,310.7320115,0.65,'11111222,11111222,11111222' 
TABS,ioos:station:wmo:42046:1,2006-11-03T23:09:00Z,27.8903,-94.0367,4.0,0.476340215,320.9643679,0.64,'11111222,11111222,11111222' 
TABS,ioos:station:wmo:42046:1,2006-11-03T23:39:00Z,27.8903,-94.0367,4.0,0.507740091,327.8748662,0.65,'11111222,11111222,11111222' 
TABS,ioos:station:wmo:42046:1,2006-11-04T00:09:00Z,27.8903,-94.0367,4.0,0.510392006,304.6240741,0.64,'11111222,11111222,11111222' 
TABS,ioos:station:wmo:42046:1,2006-11-04T00:39:00Z,27.8903,-94.0367,4.0,0.48259714,325.9805191,0.62,'11111222,11111222,11111222' 
TABS,ioos:station:wmo:42046:1,2006-11-04T01:09:00Z,27.8903,-94.0367,4.0,0.518555686,320.4772507,0.62,'11111222,11111222,11111222' 
TABS,ioos:station:wmo:42046:1,2006-11-04T01:39:00Z,27.8903,-94.0367,4.0,0.51,331.9273683,0.62,'11111222,11111222,11111222' 
TABS,ioos:station:wmo:42046:1,2006-11-04T02:09:00Z,27.8903,-94.0367,4.0,0.507740091,327.8748662,0.64,'11111222,11111222,11111222' 
TABS,ioos:station:wmo:42046:1,2006-11-04T02:39:00Z,27.8903,-94.0367,4.0,0.512640225,339.4437924,0.62,'11111222,11111222,11111222' 
TABS,ioos:station:wmo:42046:1,2006-11-04T03:09:00Z,27.8903,-94.0367,4.0,0.512640225,339.4437924,0.64,'11111222,11111222,11111222' 
TABS,ioos:station:wmo:42046:1,2006-11-04T03:39:00Z,27.8903,-94.0367,4.0,0.533385414,329.5887794,0.63,'11111222,11111222,11111222' 
TABS,ioos:station:wmo:42046:1,2006-11-04T04:09:00Z,27.8903,-94.0367,4.0,0.523927476,346.7593006,0.63,'11111222,11111222,11111222' 
TABS,ioos:station:wmo:42046:1,2006-11-04T04:39:00Z,27.8903,-94.0367,4.0,0.531601354,343.6102875,0.66,'11111222,11111222,11111222' 
TABS,ioos:station:wmo:42046:1,2006-11-04T05:09:00Z,27.8903,-94.0367,4.0,0.51,331.9273683,0.65,'11111222,11111222,11111222' 
TABS,ioos:station:wmo:42046:1,2006-11-04T05:39:00Z,27.8903,-94.0367,4.0,0.523927476,336.3704671,0.65,'11111222,11111222,11111222' 
TABS,ioos:station:wmo:42046:1,2006-11-04T06:09:00Z,27.8903,-94.0367,4.0,0.512640225,339.4437924,0.65,'11111222,11111222,11111222' 
TABS,ioos:station:wmo:42046:1,2006-11-04T06:39:00Z,27.8903,-94.0367,4.0,0.531601354,343.6102875,0.65,'11111222,11111222,11111222' 
TABS,ioos:station:wmo:42046:1,2006-11-04T07:09:00Z,27.8903,-94.0367,4.0,0.523927476,346.7593006,0.64,'11111222,11111222,11111222' 
TABS,ioos:station:wmo:42046:1,2006-11-04T07:39:00Z,27.8903,-94.0367,4.0,0.508035432,349.7958397,0.65,'11111222,11111222,11111222' 
TABS,ioos:station:wmo:42046:1,2006-11-04T08:09:00Z,27.8903,-94.0367,4.0,0.500899191,356.5661672,0.65,'11111222,11111222,11111222' 
TABS,ioos:station:wmo:42046:1,2006-11-04T08:39:00Z,27.8903,-94.0367,4.0,0.47381431,352.7248016,0.65,'11111222,11111222,11111222' 
TABS,ioos:station:wmo:42046:1,2006-11-04T09:09:00Z,27.8903,-94.0367,4.0,0.508035432,349.7958397,0.64,'11111222,11111222,11111222' 
TABS,ioos:station:wmo:42046:1,2006-11-04T09:39:00Z,27.8903,-94.0367,4.0,0.540832691,340.5598002,0.65,'11111222,11111222,11111222' 
TABS,ioos:station:wmo:42046:1,2006-11-04T10:09:00Z,27.8903,-94.0367,4.0,0.55027266,19.09323689,0.66,'11111222,11111222,11111222' 
TABS,ioos:station:wmo:42046:1,2006-11-04T10:39:00Z,27.8903,-94.0367,4.0,0.530848378,3.239482262,0.65,'11111222,11111222,11111222' 
TABS,ioos:station:wmo:42046:1,2006-11-04T11:09:00Z,27.8903,-94.0367,4.0,0.53,359.9997895,0.68,'11111222,11144222,11111222' 
TABS,ioos:station:wmo:42046:1,2006-11-04T11:39:00Z,27.8903,-94.0367,4.0,0.527730992,9.819067218,0.67,'11111222,11111222,11111222' 
TABS,ioos:station:wmo:42046:1,2006-11-04T12:09:00Z,27.8903,-94.0367,4.0,0.527730992,9.819067218,0.66,'11111222,11111222,11111222' 
TABS,ioos:station:wmo:42046:1,2006-11-04T12:39:00Z,27.8903,-94.0367,4.0,0.503587132,353.1570321,0.65,'11111222,11111222,11111222' 
TABS,ioos:station:wmo:42046:1,2006-11-04T13:09:00Z,27.8903,-94.0367,4.0,0.500899191,356.5661672,0.65,'11111222,11111222,11111222' 
TABS,ioos:station:wmo:42046:1,2006-11-04T13:39:00Z,27.8903,-94.0367,4.0,0.530848378,356.7600968,0.65,'11111222,11111222,11111222' 
TABS,ioos:station:wmo:42046:1,2006-11-04T14:09:00Z,27.8903,-94.0367,4.0,0.560802996,3.066267872,0.67,'11111222,11111222,11111222' 
TABS,ioos:station:wmo:42046:1,2006-11-04T14:39:00Z,27.8903,-94.0367,4.0,0.563205114,353.8843003,0.66,'11111222,11111222,11111222' 
TABS,ioos:station:wmo:42046:1,2006-11-04T15:09:00Z,27.8903,-94.0367,4.0,0.560802996,3.066267872,0.66,'11111222,11111222,11111222' 
TABS,ioos:station:wmo:42046:1,2006-11-04T15:39:00Z,27.8903,-94.0367,4.0,0.56,359.9997895,0.67,'11111222,11144222,11111222' 
TABS,ioos:station:wmo:42046:1,2006-11-04T16:09:00Z,27.8903,-94.0367,4.0,0.570087713,15.25487257,0.66,'11111222,11111222,11111222' 
TABS,ioos:station:wmo:42046:1,2006-11-04T16:39:00Z,27.8903,-94.0367,4.0,0.553263048,6.225604047,0.67,'11111222,11111222,11111222' 
TABS,ioos:station:wmo:42046:1,2006-11-04T17:09:00Z,27.8903,-94.0367,4.0,0.559464029,24.27417391,0.66,'11111222,11111222,11111222' 
TABS,ioos:station:wmo:42046:1,2006-11-04T17:39:00Z,27.8903,-94.0367,4.0,0.572450871,27.01239172,0.67,'11111222,11111222,11111222' 
TABS,ioos:station:wmo:42046:1,2006-11-04T18:09:00Z,27.8903,-94.0367,4.0,0.578705452,18.12160741,0.67,'11111222,11111222,11111222' 
TABS,ioos:station:wmo:42046:1,2006-11-04T18:39:00Z,27.8903,-94.0367,4.0,0.578705452,18.12160741,0.69,'11111222,11111222,11111222' 
TABS,ioos:station:wmo:42046:1,2006-11-04T19:09:00Z,27.8903,-94.0367,4.0,0.562938718,12.30777658,0.68,'11111222,11111222,11111222' 